Tracking 29892 objects as of 21-Nov-2024
HD Live streaming from Space Station
objects crossing your sky now

STARLINK-3068

Track STARLINK-3068 now!
10-day predictions
STARLINK-3068 is classified as:


NORAD ID: 49154
Int'l Code: 2021-082AA
Perigee: 577.0 km
Apogee: 581.3 km
Inclination: 70.0 °
Period: 96.1 minutes
Semi major axis: 6950 km
RCS: Unknown
Launch date: September 14, 2021
Source: United States (US)
Launch site: AIR FORCE WESTERN TEST RANGE (AFWTR)
Your satellite tracking list
Your tracking list is empty




NASA's NSSDC Master Catalog

Two Line Element Set (TLE):
1 49154U 21082AA  24325.19637393  .00000219  00000-0  26113-4 0  9992
2 49154  70.0003  30.8098 0003053 267.2925  92.7885 14.98337666176474
Source of the keplerian elements: AFSPC